This is the latest recevied weather packets stored in our database for station/object MMMX. If no packets are shown the sender has not sent any weather packets the latest 10 day(s).
| Time | Temp. | Humidity | Pressure | Rain* | Wind** | Luminosity | Snow |
|---|---|---|---|---|---|---|---|
| 1778172825 | 25° C | 31% | 1026.4 hPa | - | - | - | - |
| 1778172226 | 22.78° C | 40% | 1027.1 hPa | - | - | - | - |
| 1778171627 | 22.78° C | 40% | 1027.1 hPa | - | - | - | - |
| 1778171024 | 22.78° C | 40% | 1027.1 hPa | - | - | - | - |
| 1778170427 | 22.78° C | 40% | 1027.1 hPa | - | - | - | - |
| 1778169946 | 22.78° C | 40% | 1027.1 hPa | - | - | - | - |
| 1778169223 | 20.56° C | 46% | 1027.4 hPa | - | - | - | - |
| 1778168624 | 20.56° C | 46% | 1027.4 hPa | - | - | - | - |
| 1778168025 | 20.56° C | 46% | 1027.4 hPa | - | - | - | - |
| 1778167425 | 20.56° C | 46% | 1027.4 hPa | - | - | - | - |
| 1778166825 | 20.56° C | 46% | 1027.4 hPa | - | - | - | - |
| 1778166224 | 20.56° C | 46% | 1027.4 hPa | - | - | - | - |
| 1778165622 | 20° C | 49% | 1027.1 hPa | - | - | - | - |
| 1778165022 | 20° C | 49% | 1027.1 hPa | - | - | - | - |
| 1778164424 | 20° C | 49% | 1027.1 hPa | - | - | - | - |
| 1778163825 | 20° C | 49% | 1027.1 hPa | - | - | - | - |
| 1778163225 | 20° C | 49% | 1027.1 hPa | - | - | - | - |
| 1778162622 | 20° C | 49% | 1027.1 hPa | - | - | - | - |
| 1778162019 | 15° C | 67% | 1026.8 hPa | - | - | - | - |
| 1778161423 | 15° C | 67% | 1026.8 hPa | - | - | - | - |
| 1778160825 | 15° C | 67% | 1026.8 hPa | - | - | - | - |
| 1778160227 | 15° C | 67% | 1026.8 hPa | - | - | - | - |
| 1778159624 | 15° C | 67% | 1026.8 hPa | - | - | - | - |
| 1778159024 | 15° C | 67% | 1026.8 hPa | - | - | - | - |
| 1778158428 | 13.89° C | 67% | 1026.1 hPa | - | - | - | - |
* Rain since midnight (hover to see other rain measurements)
** Current wind speed in m/s (hover to see current wind gust speed)